Grayling, MI

9:35 AM EDT on July 26, 2017 (GMT -0400)
Grayling

Weather History for KGOV - February, 2013

Change the Weather History Date:

Tuesday, February 5, 2013

  Actual Average (KHTL) Record (KHTL)
Temperature  
Mean Temperature -5 °F -  
Max Temperature 19 °F 25 °F 50 °F (2005)
Min Temperature -18 °F 7 °F -25 °F (1923)
Degree Days  
Heating Degree Days 70    
Moisture  
Dew Point -17 °F    
Average Humidity 77    
Maximum Humidity 85    
Minimum Humidity 70    
Precipitation  
Precipitation 0.00 in - - ()
Sea Level Pressure  
Sea Level Pressure 29.84 in    
Wind  
Wind Speed 0 mph (WSW)    
Max Wind Speed 14 mph    
Max Gust Speed 17 mph    
Visibility 10 miles    
Events      
Averages and records for this station are not official NWS values.
T = Trace of Precipitation, MM = Missing Value Source: NWS Daily Summary

Daily Weather History Graph

Daily Weather History Graph

Search for Another Location

Airport or City:

Trip Planner

Search our weather history database for the weather conditions in past years. The results will help you decide how hot, cold, wet, or windy it might be!

Date:

Astronomy

Feb. 05, 2013 Rise Set
Actual Time 7:52 AM EST 5:53 PM EST
Civil Twilight 7:22 AM EST 6:24 PM EST
Nautical Twilight 6:47 AM EST 6:59 PM EST
Astronomical Twilight 6:13 AM EST 7:33 PM EST
Moon 3:38 AM EST (2/5) 1:05 PM EST (2/5)
Length of Visible Light 11h 02m
Length of Day
10h 00m
Waning Crescent, 27% of the Moon is Illuminated
Feb 5
Waning Crescent
Feb 10
New
Feb 17
First Quarter
Feb 25
Full
Mar 4
Last Quarter

Hourly Weather History & Observations

Time (EST) Temp. Windchill Dew Point Humidity Pressure Visibility Wind Dir Wind Speed Gust Speed Precip Events Conditions
12:13 AM -14.8 °F - -20.4 °F 76% 29.88 in 10.0 mi Calm Calm - N/A   Clear
12:28 AM -14.1 °F - -19.3 °F 77% 29.88 in 10.0 mi Calm Calm - N/A   Clear
12:57 AM -13.0 °F - -18.4 °F 77% 29.87 in 10.0 mi Calm Calm - N/A   Clear
1:17 AM -14.8 °F - -20.2 °F 77% 29.87 in 10.0 mi Calm Calm - N/A   Clear
1:36 AM -11.2 °F - -16.6 °F 77% 29.86 in 10.0 mi Calm Calm - N/A   Clear
1:56 AM -13.0 °F - -18.4 °F 77% 29.85 in 10.0 mi Calm Calm - N/A   Clear
2:16 AM -16.6 °F - -22.0 °F 76% 29.85 in 10.0 mi Calm Calm - N/A   Clear
3:17 AM -16.6 °F - -22.0 °F 76% 29.85 in 10.0 mi Calm Calm - N/A   Clear
3:36 AM -16.6 °F - -22.0 °F 76% 29.84 in 10.0 mi Calm Calm - N/A   Clear
3:56 AM -18.4 °F - -25.6 °F 70% 29.84 in 10.0 mi Calm Calm - N/A   Clear
4:16 AM -18.4 °F - -23.8 °F 76% 29.84 in 10.0 mi Calm Calm - N/A   Clear
4:36 AM -16.6 °F - -22.0 °F 76% 29.84 in 10.0 mi Calm Calm - N/A   Clear
5:00 AM -18.4 °F - -25.6 °F 70% 29.83 in 10.0 mi Calm Calm - N/A   Clear
5:16 AM -16.6 °F - -22.0 °F 76% 29.82 in 10.0 mi Calm Calm - N/A   Clear
5:36 AM -18.4 °F - -25.6 °F 70% 29.82 in 10.0 mi Calm Calm - N/A   Clear
5:58 AM -16.6 °F - -23.8 °F 70% 29.81 in 10.0 mi Calm Calm - N/A   Mostly Cloudy
6:16 AM -11.2 °F - -16.6 °F 77% 29.80 in 10.0 mi Calm Calm - N/A   Overcast
6:36 AM -9.4 °F - -14.8 °F 77% 29.80 in 10.0 mi Calm Calm - N/A   Overcast
6:56 AM -7.6 °F - -11.2 °F 84% 29.81 in 10.0 mi Calm Calm - N/A   Overcast
7:16 AM - - - N/A% - 10.0 mi Calm Calm - N/A   Overcast
7:56 AM -2.2 °F - -5.8 °F 85% 29.80 in 10.0 mi Calm Calm - N/A   Overcast
8:56 AM 8.6 °F -1.3 °F 5.0 °F 85% 29.77 in 7.0 mi South 5.8 mph - N/A   Overcast
9:37 PM 19.4 °F 6.0 °F 14.0 °F 80% 29.87 in 10.0 mi NW 13.8 mph 17.3 mph N/A   Overcast